Location: Bächen
(47.7833°N, 9.3333°E)
Time: 00:33:18
(UTC+00:00)

Daily predictions for brighter satellites

Satellite Brightness Start Highest point End
(mag) Time Altitude Azimuth Time Altitude Azimuth Time Altitude Azimuth
SL-16 R/B 3.8 00:02:19 18° SE 00:04:35 23° E 00:08:54 10° NE
Lacrosse 5 3.0 00:07:00 26° SE 00:07:33 26° SE 00:11:46 10° ENE
SL-16 R/B 4.0 00:02:08 10° ESE 00:07:36 34° ENE 00:13:06 10° N
USA 306 2.7 00:07:12 60° S 00:07:38 65° SE 00:11:47 10° ENE
Cosmos 1980 3.7 00:06:08 39° S 00:08:13 71° ESE 00:13:51 10° NNE
Cosmos 371 Rocket 3.2 00:06:52 46° SSW 00:08:19 86° ESE 00:13:13 10° NNE
Cosmos 1461 4.3 00:07:22 10° WNW 00:10:09 24° W 00:10:09 24° W
Cosmos 2333 Rocket 3.7 00:07:16 13° WSW 00:11:39 31° NW 00:16:40 10° NNE
USA 307 2.8 00:11:14 57° S 00:11:39 61° SE 00:15:48 10° ENE
Meteor 2-10 Rocket 3.8 00:08:22 10° N 00:14:04 72° ENE 00:16:52 30° SSE
ATLAS CENTAUR R/B 3.8 00:12:19 10° W 00:13:49 13° W 00:13:49 13° W
ASTEX 1 4.2 00:11:44 10° N 00:16:19 41° WNW 00:18:02 30° WSW
Cosmos 1709 Rocket 3.9 00:10:19 10° N 00:16:29 89° E 00:19:32 32° S
Cosmos 304 Rocket 3.9 00:15:45 43° S 00:17:13 66° ESE 00:22:01 10° NNE
USA 267 3.5 00:17:02 31° S 00:19:38 44° SW 00:25:52 10° WNW
Cosmos 2084 Rocket 4.1 00:19:40 33° SE 00:19:46 33° ESE 00:23:13 10° ENE
Cosmos 2315 Rocket 4.1 00:18:32 32° S 00:21:40 78° E 00:28:05 10° NNE
NOSS 2-2 (C) 4.5 00:18:24 10° NW 00:23:27 54° SW 00:26:47 29° S
Cosmos 1674 Rocket 4.4 00:23:08 32° WSW 00:24:19 38° WNW 00:28:23 10° N
USA 229 DEB 4.1 00:19:14 10° NW 00:26:23 53° WSW 00:30:40 26° S
USA 229 4.1 00:19:20 10° NW 00:26:29 54° WSW 00:30:48 26° S
S3M 4.3 00:24:09 31° SW 00:27:13 60° WNW 00:33:31 10° N
Meteor 1-24 Rocket 4.5 00:25:27 23° SSE 00:28:25 43° E 00:33:33 10° NNE
Cosmos 2219 Rocket 3.7 00:26:28 12° WSW 00:30:44 29° NW 00:35:34 10° NNE
Cosmos 1455 4.0 00:28:15 10° NNE 00:31:25 26° ENE 00:33:50 14° ESE
Cosmos 2150 Rocket 4.3 00:32:33 31° SW 00:34:49 57° WNW 00:39:55 10° NNE
MOZ.5/SAFIR/RUBIN 5/SL-8 3.7 00:34:54 35° S 00:36:55 85° WSW 00:41:42 10° NNW
CZ-2D R/B 2.9 00:32:52 10° NNE 00:37:59 43° E 00:40:53 23° SSE
Cosmos 1455 Rocket 3.0 00:36:11 10° N 00:40:40 89° E 00:42:27 36° S
USA 308 2.8 00:40:45 37° WSW 00:42:20 88° NW 00:46:33 10° ENE
Cosmos 1300 3.1 00:39:50 10° NNW 00:43:27 43° W 00:43:56 41° WSW
Cosmos 1125 Rocket 4.2 00:43:32 26° WSW 00:46:06 45° WNW 00:51:08 10° NNE
NOSS 0 Rocket 4.4 00:45:01 23° WSW 00:48:49 54° NW 00:54:58 10° NNE
Meteor 2-5 Rocket 3.8 00:50:14 29° S 00:53:21 79° E 00:59:02 10° NNE
ERBS 2.3 00:55:13 47° W 00:55:50 62° NNW 00:58:53 10° NE
CZ-4C R/B 4.0 00:50:48 10° WNW 00:56:53 27° WSW 00:59:24 23° SW
Cosmos 1975 Rocket 3.1 00:56:40 36° SSW 00:58:23 70° WNW 01:02:52 10° N
Cosmos 2237 Rocket 2.7 00:56:44 24° SW 01:00:00 54° WNW 01:05:37 10° NNE
Cosmos 1025 Rocket 2.9 01:00:08 36° SSW 01:01:52 79° W 01:06:11 10° N
Resurs 1-4 Rocket 2.2 00:58:40 10° NNE 01:03:57 72° ESE 01:07:01 26° S
COSMOS 2428 4.5 01:00:05 10° W 01:04:40 24° NW 01:09:14 10° N
SME Rocket 3.4 01:03:28 34° SSW 01:05:03 55° W 01:10:09 10° NNW
USA 305 3.3 01:02:26 20° W 01:05:11 60° NNW 01:09:20 10° ENE
Cosmos 332 Rocket 4.2 01:08:19 27° SW 01:10:42 51° WNW 01:15:23 10° NNE
CZ-4 R/B 3.8 01:06:03 10° NNE 01:10:44 81° ESE 01:13:13 28° S
YAOGAN 11 4.4 01:09:44 15° SSE 01:13:18 70° ENE 01:17:49 10° N
Cosmos 1943 Rocket 2.1 01:08:39 10° NNW 01:14:20 73° WSW 01:19:23 13° SSE
Lacrosse 5 rocket 1.6 01:14:37 33° S 01:15:55 48° SE 01:19:49 10° ENE
IDEFIX/ARIANE 42P 3.5 01:11:52 10° NNE 01:16:54 43° E 01:21:05 14° SSE
GP-B 4.2 01:13:49 10° NNW 01:17:45 32° W 01:19:29 24° WSW
ADEOS II 2.7 01:12:39 10° NNE 01:17:48 52° E 01:21:39 17° S
UNK 3.7 01:15:35 17° SSE 01:19:05 85° ENE 01:23:44 10° NNW
Cosmos 614 Rocket 4.1 01:14:10 10° NNW 01:19:23 77° ENE 01:24:36 10° SSE
Cosmos 2297 3.7 01:14:21 10° NNW 01:20:09 83° WSW 01:25:53 10° SSE
Thor Agena Rocket 4.1 01:16:09 10° N 01:21:13 48° WNW 01:24:18 22° SW
USA 215 4.4 01:19:52 10° ENE 01:25:56 42° N 01:32:00 10° WNW
Cosmos 1544 Rocket 3.7 01:22:48 10° NNW 01:27:09 58° W 01:29:32 25° SSW
Cosmos 1703 4.3 01:24:41 16° SSE 01:27:31 41° E 01:31:14 10° NNE
Cosmos 2278 Rocket 3.8 01:26:01 10° WNW 01:29:29 17° W 01:30:39 16° WSW
Helios 1A 3.4 01:25:23 10° SSE 01:29:33 63° ENE 01:33:45 10° N
Cosmos 2251 Rocket 4.1 01:25:07 10° NNW 01:30:21 60° ENE 01:35:34 10° SE
Cosmos 2154 Rocket 4.0 01:25:03 10° N 01:31:27 88° E 01:37:42 10° S
EO 1 Del DPAF 3.7 01:30:38 10° NNE 01:34:03 47° E 01:36:19 19° SSE
MOS 1 Rocket 3.0 01:33:16 18° S 01:36:25 75° WSW 01:40:46 10° NNW
NPP 3.7 01:32:24 10° NNE 01:37:48 75° WNW 01:41:35 20° SSW
Cosmos 2369 Rocket 2.3 01:37:51 10° NNW 01:43:28 79° ENE 01:49:04 10° SSE
Cosmos 1656 Rocket 4.0 01:41:27 10° NNW 01:46:53 68° ENE 01:52:16 10° SE
USA 306 3.9 01:43:24 10° W 01:47:23 43° NNW 01:51:24 10° ENE
SL-16 R/B 2.4 01:44:11 19° SW 01:48:12 64° WNW 01:53:52 10° NNE
Meteor 1-28 Rocket 3.1 01:46:35 16° S 01:49:28 71° WSW 01:53:12 10° NNW
Lacrosse 5 2.0 01:46:10 17° WSW 01:50:08 74° NW 01:55:16 10° NE
SL-16 R/B 2.8 01:45:54 15° S 01:50:58 50° W 01:57:03 10° NNW
USA 307 3.9 01:47:24 10° W 01:51:25 44° NNW 01:55:27 10° ENE
Cosmos 2074 Rocket 4.4 01:48:14 10° NNW 01:54:12 47° W 01:59:10 15° SSW
Cosmos 2084 Rocket 4.5 01:56:07 13° W 01:59:09 32° NW 02:02:38 10° NNE
AQUA 4.1 01:56:40 10° N 02:01:20 55° WNW 02:04:57 16° SW
Cosmos 1455 3.4 02:03:47 10° NW 02:06:48 24° W 02:08:35 17° SW
Cosmos 1603 4.3 02:06:24 10° S 02:11:51 54° ESE 02:17:22 10° NE
DNEPR-1 R/B 4.4 02:08:47 12° S 02:12:26 42° ESE 02:16:49 10° NE
COSMOS 2455 2.9 02:08:44 15° SW 02:13:52 76° NW 02:19:57 10° NNE
Cosmos 2228 3.2 02:10:02 10° NNW 02:14:19 57° W 02:18:33 10° S
Cosmos 407 Rocket 3.7 02:08:59 10° NNW 02:14:20 80° ENE 02:19:36 10° SSE
Cosmos 1271 Rocket 3.4 02:11:30 10° NNW 02:15:01 35° W 02:18:01 13° SSW
Cosmos 2218 Rocket 4.4 02:10:13 10° N 02:16:26 67° ENE 02:22:42 10° SSE
CZ-2D R/B 3.2 02:13:11 10° N 02:17:53 31° WNW 02:22:12 11° WSW
USA 308 4.2 02:18:24 10° WNW 02:22:19 37° N 02:26:15 10° ENE
Cosmos 1140 Rocket 3.5 02:17:16 10° NNW 02:22:33 85° WSW 02:27:47 10° SSE
MSX 3.9 02:19:26 10° N 02:25:12 72° WNW 02:30:56 10° SSW
Cosmos 2058 Rocket 3.6 02:24:55 10° N 02:29:17 63° ENE 02:33:36 10° SSE
Cosmos 292 Rocket 4.4 02:25:27 12° SW 02:29:40 45° WNW 02:34:17 10° NNE
Cosmos 2181 Rocket 4.1 02:27:52 10° S 02:34:06 80° E 02:40:17 10° N
NOSS 3-3 (A) 4.0 02:30:11 10° SW 02:35:46 82° SE 02:42:21 10° NE
NOSS 3-3 (C) 4.0 02:30:17 10° SSW 02:35:52 81° SE 02:42:26 10° NE
Genesis I 3.3 02:36:42 10° NW 02:40:44 62° SW 02:44:39 10° SSE
Cosmos 1943 3.3 02:36:29 10° SSW 02:42:11 84° WNW 02:47:55 10° NNE
Resurs 1-4 Rocket 3.8 02:39:30 10° NNW 02:43:13 20° WNW 02:46:56 10° WSW
Meteor 2-1 Rocket 4.5 02:38:32 10° NNW 02:44:08 53° W 02:49:35 10° S
USA 305 4.4 02:41:27 10° WNW 02:45:17 34° N 02:49:08 10° ENE
Cosmos 2237 Rocket 4.4 02:42:27 10° WNW 02:45:26 14° NW 02:48:26 10° N
DEBRIS 3.5 02:35:32 10° WNW 02:45:36 80° SSW 02:48:44 10° ESE
Helios 1B rocket 2.4 02:42:48 10° NNE 02:46:53 87° ESE 02:50:57 10° SSW
Cosmos 1328 4.1 02:45:09 10° SSW 02:49:00 52° WNW 02:52:55 10° N
Cosmos 1606 Rocket 4.2 02:46:06 10° NNW 02:50:10 37° W 02:54:10 10° SSW
ARIANE 5 R/B 3.4 02:47:07 10° NNE 02:52:03 49° E 02:56:54 10° S
Cosmos 1624 Rocket 4.3 02:47:53 10° SSW 02:53:11 73° ESE 02:58:29 10° NNE
Lacrosse 5 rocket 2.4 02:51:21 10° W 02:55:04 38° NNW 02:59:00 10° NE
CBERS-1 4.1 02:50:19 10° N 02:55:26 72° WNW 03:00:31 10° SSW
IDEFIX/ARIANE 42P 3.7 02:51:45 10° N 02:56:19 31° WNW 03:00:53 10° WSW
